TimeCDT,TemperatureF,Dew PointF,Humidity,Sea Level PressureIn,VisibilityMPH,Wind Direction,Wind SpeedMPH,Gust SpeedMPH,PrecipitationIn,Events,Conditions,WindDirDegrees,DateUTC
12:53 AM,59.0,46.9,64,30.16,10.0,NE,4.6,-,N/A,,Clear,40,2013-04-23 05:53:00
1:53 AM,57.0,46.0,67,30.15,10.0,NE,8.1,-,N/A,,Clear,50,2013-04-23 06:53:00
2:53 AM,55.9,45.0,67,30.15,10.0,NE,4.6,-,N/A,,Clear,50,2013-04-23 07:53:00
3:53 AM,55.0,43.0,64,30.16,10.0,NE,5.8,-,N/A,,Clear,50,2013-04-23 08:53:00
4:53 AM,53.1,42.1,66,30.16,10.0,NE,5.8,-,N/A,,Scattered Clouds,40,2013-04-23 09:53:00
5:53 AM,53.1,39.9,61,30.17,10.0,NE,5.8,-,N/A,,Mostly Cloudy,50,2013-04-23 10:53:00
6:53 AM,55.0,39.0,55,30.17,10.0,NNE,8.1,-,N/A,,Partly Cloudy,30,2013-04-23 11:53:00
7:53 AM,57.0,37.9,49,30.19,10.0,ENE,8.1,-,N/A,,Clear,60,2013-04-23 12:53:00
8:53 AM,60.1,39.0,46,30.19,10.0,East,6.9,-,N/A,,Mostly Cloudy,80,2013-04-23 13:53:00
9:53 AM,64.0,39.0,40,30.20,10.0,East,9.2,-,N/A,,Mostly Cloudy,90,2013-04-23 14:53:00
10:53 AM,68.0,42.1,39,30.19,10.0,ESE,8.1,-,N/A,,Partly Cloudy,110,2013-04-23 15:53:00
11:53 AM,70.0,44.1,39,30.17,10.0,Calm,Calm,-,N/A,,Clear,0,2013-04-23 16:53:00
12:53 PM,72.0,48.0,43,30.14,10.0,Variable,4.6,17.3,N/A,,Clear,0,2013-04-23 17:53:00
1:53 PM,73.9,46.9,38,30.12,10.0,SW,6.9,-,N/A,,Partly Cloudy,220,2013-04-23 18:53:00
2:53 PM,75.9,48.9,38,30.09,10.0,Calm,Calm,-,N/A,,Scattered Clouds,0,2013-04-23 19:53:00
3:53 PM,75.9,48.9,38,30.06,10.0,SSE,3.5,-,N/A,,Partly Cloudy,160,2013-04-23 20:53:00
4:53 PM,75.9,48.0,37,30.05,10.0,SSE,3.5,-,N/A,,Clear,160,2013-04-23 21:53:00
5:53 PM,75.0,48.0,38,30.05,10.0,SSE,9.2,-,N/A,,Clear,150,2013-04-23 22:53:00
6:53 PM,72.0,50.0,46,30.05,10.0,SSE,3.5,-,N/A,,Clear,150,2013-04-23 23:53:00
7:53 PM,64.9,52.0,63,30.06,10.0,Calm,Calm,-,N/A,,Clear,0,2013-04-24 00:53:00
8:53 PM,61.0,53.1,75,30.08,10.0,Calm,Calm,-,N/A,,Clear,0,2013-04-24 01:53:00
9:53 PM,60.1,54.0,80,30.09,10.0,Calm,Calm,-,N/A,,Clear,0,2013-04-24 02:53:00
10:53 PM,57.0,53.1,87,30.08,10.0,Calm,Calm,-,N/A,,Clear,0,2013-04-24 03:53:00
11:53 PM,57.0,53.1,87,30.09,10.0,Calm,Calm,-,N/A,,Clear,0,2013-04-24 04:53:00